Location: Boulder, CO
(40.0083°N, 105.2472°W)
Time: 00:41:05
(UTC-06:00)

SORCE - Visible Passes

Search period start: 31 March 2015 00:00
Search period end: 10 April 2015 00:00
Orbit: 589 x 623 km, 40.0° (Epoch: 30 March)

Date Brightness Start Highest point End Pass type
(mag) Time Alt. Az. Time Alt. Az. Time Alt. Az.
31 Mar 6.4 04:24:40 60° E 04:24:40 60° E 04:28:27 10° E visible
31 Mar 6.3 06:01:26 11° W 06:05:47 55° SSW 06:10:17 10° ESE visible
01 Apr 6.0 04:36:19 80° SE 04:36:19 80° SE 04:40:43 10° ESE visible
01 Apr 6.8 06:13:40 10° W 06:17:54 38° SSW 06:22:09 10° SE visible
02 Apr 5.9 04:48:04 65° SW 04:48:21 68° SSW 04:52:55 10° ESE visible
03 Apr 9.0 03:23:09 10° E 03:23:09 10° E 03:23:14 10° E visible
03 Apr 6.2 04:59:56 46° SW 05:00:31 49° SSW 05:04:57 10° SE visible
04 Apr 8.8 03:35:10 12° ESE 03:35:10 12° ESE 03:35:27 10° ESE visible
04 Apr 6.8 05:11:58 31° SW 05:12:37 33° SSW 05:16:42 10° SE visible
05 Apr 8.7 03:47:21 11° ESE 03:47:21 11° ESE 03:47:35 10° ESE visible
05 Apr 7.4 05:24:10 21° SW 05:24:37 21° SSW 05:28:02 10° SSE visible
06 Apr 8.0 05:36:34 12° SW 05:36:34 12° SW 05:38:22 10° SSW visible
07 Apr 8.4 21:28:49 10° SSW 21:28:55 10° SSW 21:28:55 10° SSW visible
08 Apr 7.9 21:40:16 10° SW 21:41:37 18° SSW 21:41:37 18° SSW visible
09 Apr 7.6 20:12:13 10° S 20:14:56 16° SE 20:17:17 12° ESE visible
09 Apr 7.5 21:52:05 10° WSW 21:54:07 26° SW 21:54:07 26° SW visible
